Regional Weather Roundup
Issued by NWS Charleston, SC

Current Version | Previous Version | Text Only | Print | Product List | Glossary Off
Versions: 1 2 3 4 5 6 7 8 9 10 11 12 13 14 15 16 17 18 19 20 21 22 23 24 25 26 27 28 29 30 31 32 33 34 35 36 37 38 39 40 41 42 43 44 45 46 47 48 49 50
000 ASUS42 KCHS 301513 RWRCHS REGIONAL WEATHER ROUNDUP NATIONAL WEATHER SERVICE CHARLESTON SC 1100 AM EDT MON MAY 30 2016 NOTE: "FAIR" INDICATES FEW OR NO CLOUDS BELOW 12,000 FEET WITH NO SIGNIFICANT WEATHER AND/OR OBSTRUCTIONS TO VISIBILITY. NOT ALL STATIONS ARE QUALITY CONTROLLED. USE DATA WITH CAUTION... ESPECIALLY DEWPOINT OBSERVATIONS. SCZ027-030-031-034>040-042>050-301600- ...SOUTHEAST SOUTH CAROLINA... CITY SKY/WX TMP DP RH WIND PRES REMARKS N CHARLESTON CLOUDY 73 68 84 W8 29.93F WATERFRONT PRK N/A 71 69 93 W7 29.92S MOUNT PLEASANT CLOUDY 73 70 88 W6 29.93F FOG JOHNS ISLAND CLOUDY 75 70 83 W8 29.94S PINOPOLIS N/A 72 70 94 W12 29.84 MONCKS CORNER CLOUDY 68 64 88 CALM 29.93S FOG SUMMERVILLE CLOUDY 70 70 100 W6 29.95S FOG BEAUFORT MCAS PTSUNNY 76 69 79 NW13 29.96S BEAUFORT ARPT PTSUNNY 73 68 83 NW9 29.96S HILTON HEAD IS MOSUNNY 75 68 78 W7 29.97S WALTERBORO CLOUDY 72 72 100 NW8 29.97S ALLENDALE PTSUNNY 77 68 73 CALM 29.96F ...SOUTHERN MIDLANDS AND PEE DEE... CITY SKY/WX TMP DP RH WIND PRES REMARKS GEORGETOWN CLOUDY 75 70 83 S5 29.93S KINGSTREE CLOUDY 72 68 88 E3 29.92F ORANGEBURG LGT RAIN 71 67 87 VRB5 29.96F BARNWELL FAIR 81 73 78 W9 29.98F AIKEN CLOUDY 73 64 73 N8 30.02F MANNING RAIN 70 68 94 N5 29.93S COLUMBIA PTSUNNY 77 66 68 N8 29.97S SUMTER CLOUDY 71 68 91 N9 29.93S FLORENCE CLOUDY 76 71 85 E7 29.94S MYRTLE BEACH PTSUNNY 79 66 65 S14 29.95S N MYRTLE BEACH LGT RAIN 76 71 85 S8 29.94S $$ GAZ063-065-086>088-099>101-113>116-118-119-134>141-150-301600- ...SOUTHEAST GEORGIA... CITY SKY/WX TMP DP RH WIND PRES REMARKS SAVANNAH ARPT PTSUNNY 80 67 64 NW12 29.97F HUNTER AAF NOT AVBL FORT STEWART NOT AVBL STATESBORO MOSUNNY 78 71 78 NW8 29.99S SYLVANIA SUNNY 79 70 73 NW8 29.99F CLAXTON FAIR 80 69 69 W10 29.99F ...CSRA...CENTRAL AND FAR SOUTHEAST GEORGIA... CITY SKY/WX TMP DP RH WIND PRES REMARKS THOMSON MOSUNNY 81 67 63 NW8 30.06S AUGUSTA-BUSH PTSUNNY 77 66 68 VRB6 30.00S AUGUSTA-DANIEL MOSUNNY 78 65 63 NW12 30.01S SWAINSBORO FAIR 81 64 57 N7 30.02S VIDALIA SUNNY 81 64 57 N8 30.01S EASTMAN FAIR 82 63 52 N5 30.05S HAZLEHURST FAIR 85 63 47 N5 30.00S ALMA SUNNY 83 63 50 VRB3 30.01S WAYCROSS SUNNY 83 65 55 W3 30.01S JESUP FAIR 79 61 53 NW3 30.00S BAXLEY FAIR 82 63 51 NW7 30.01S BRUNSWICK CLOUDY 84 68 58 W5 30.00S SAINT SIMONS CLOUDY 79 64 60 W8 29.99S $$ SCZ027-028-034-036>038-045-046-048>050-GAZ119-141-301600- ...LAKE AND SUPPLEMENTAL COASTAL OBSERVATIONS... STATION/POSITION TIME TEMP WIND PRES WAVE SWELL AIR SEA DIR/SP/G HT/PER HT/PER/DIR (UTC) (F) (DEG/KT/KT) (MB) (FT/S) (FT/S/D) WINYAH BAY 1345 74 150/ 5 1012.0 LAKE MURRAY 1400 71 300/ 5/ 10 1014.9S ACE BASIN NERRS NOT AVBL FORT PULASKI 1400 73 75 280/ 12/ 13 1015.0S SAPELO ISLAND 1400 73 280/ 6 1016.0R $$ ANZ835-935-AMZ111-154-330-350-352-354-370-450-454-472-301600- ...C-MAN AND BUOY OBSERVATIONS... STATION/POSITION TIME TEMP WIND PRES WAVE SWELL AIR SEA DIR/SP/G HT/PER HT/PER/DIR (UTC) (F) (DEG/KT/KT) (MB) (FT/S) (FT/S/D) BUOY 41004 1450 73 77 240/ 12/ 14 1013.5R 4/ 8 3/ 8 BUOY 41008 1450 74 76 250/ 8/ 10 1015.1F 2/ 8 2/ 90/ 8 FOLLY BEACH CMAN 1400 72 260/ 9/ 11 1013.9R CAPERS NEARSHORE 1408 73 76 250/ 8/ 12 1013.6R FRIPP NEARSHORE 1408 71 75 330/ 10/ 14 1014.0R STATION/POSITION TIME TEMP WIND PRES WAVE SWELL AIR SEA DIR/SP/G HT/PER HT/PER/DIR (UTC) (F) (DEG/KT/KT) (MB) (FT/S) (FT/S/D) 5E ST. MARYS GA 1401 78 N/A 2/ 8 FRYING PAN BUOY 1400 77 78 190/ 10/ 14 1014.4R BUOY 41025 1450 73 80 250/ 10/ 14 1016.7R 6/ 7 5/170/ 7 CAPE LOOKOUT NC 1400 74 70/ 8/ 8 1015.7S BUOY 41002 1450 73 75 130/ 12/ 14 1016.7R 5/ 8 3/ 80/ 8 BUOY 41010 1420 78 79 200/ 8/ 8 1016.6F ST AUGUSTINE FL 1500 84 80 260/ 5/ 7 1016.8R $$

USA.gov is the U.S. government's official web portal to all federal, state and local government web resources and services.